FW2164 Weather Reports


Display with metric or nautical units.
time (UTC)temp
F
wind
direction
speed
MPH
gust
MPH
rain 1hr
in
rain 24hr
in
rain mn
in
humidity
%
barometer
mb
20210916105838 66 144 13.0 0.0 0.00 0.00 0.00 72 1006.8
20210916105340 66 215 14.0 0.0 0.00 0.00 0.00 72 1006.8
20210916104840 66 197 13.0 0.0 0.00 0.00 0.00 72 1006.8
20210916104339 66 256 15.0 0.0 0.00 0.00 0.00 72 1006.8
20210916103839 66 133 15.0 0.0 0.00 0.00 0.00 72 1006.8
20210916103335 66 167 13.0 0.0 0.00 0.00 0.00 72 1006.8
20210916102836 66 192 13.0 0.0 0.00 0.00 0.00 71 1006.8
20210916102339 66 164 14.0 0.0 0.00 0.00 0.00 72 1006.8
20210916101835 66 176 15.0 0.0 0.00 0.00 0.00 73 1006.8
20210916101342 66 144 13.0 0.0 0.00 0.00 0.00 73 1006.8
20210916100844 66 157 15.0 0.0 0.00 0.00 0.00 73 1006.8
20210916100341 66 168 15.0 0.0 0.00 0.00 0.00 75 1006.8
20210916095839 66 192 15.0 0.0 0.00 0.00 0.00 74 1006.8
20210916095341 67 190 12.0 0.0 0.00 0.00 0.00 73 1006.8
20210916094841 67 125 12.0 0.0 0.00 0.00 0.00 70 1006.8
20210916094412 67 150 13.0 0.0 0.00 0.00 0.00 70 1006.8
20210916093943 67 150 16.0 0.0 0.00 0.00 0.00 70 1006.8
20210916093338 67 161 14.0 0.0 0.00 0.00 0.00 70 1007.1
20210916092842 67 166 12.0 0.0 0.00 0.00 0.00 69 1007.1
20210916092337 67 169 16.0 0.0 0.00 0.00 0.00 70 1007.1
20210916091837 68 186 17.0 0.0 0.00 0.00 0.00 69 1006.8
20210916091336 67 172 15.0 0.0 0.00 0.00 0.00 69 1007.1
20210916090842 67 153 10.0 0.0 0.00 0.00 0.00 70 1007.1
20210916090336 67 147 14.0 0.0 0.00 0.00 0.00 69 1006.8
20210916085841 68 155 15.0 0.0 0.00 0.00 0.00 68 1006.8
20210916085342 68 137 14.0 0.0 0.00 0.00 0.00 69 1007.1
20210916084913 68 157 14.0 0.0 0.00 0.00 0.00 69 1007.1
20210916084336 68 156 14.0 0.0 0.00 0.00 0.00 68 1006.8
20210916083843 68 120 16.0 0.0 0.00 0.00 0.00 68 1007.1
20210916083513 68 210 16.0 0.0 0.00 0.00 0.00 68 1007.1
20210916082837 68 176 12.0 0.0 0.00 0.00 0.00 68 1007.1
20210916082341 68 180 13.0 0.0 0.00 0.00 0.00 68 1007.1
20210916081841 68 173 14.0 0.0 0.00 0.00 0.00 68 1007.1
20210916081339 68 168 14.0 0.0 0.00 0.00 0.00 69 1007.1
20210916080837 68 160 14.0 0.0 0.00 0.00 0.00 68 1007.1
20210916080337 68 162 18.0 0.0 0.00 0.00 0.00 67 1007.5
20210916075840 68 146 13.0 0.0 0.00 0.00 0.00 68 1007.5
20210916075341 68 156 13.0 0.0 0.00 0.00 0.00 68 1007.5
20210916074843 68 150 15.0 0.0 0.00 0.00 0.00 68 1007.5
20210916074340 68 144 14.0 0.0 0.00 0.00 0.00 68 1007.5
20210916073839 68 149 15.0 0.0 0.00 0.00 0.00 67 1007.5
20210916073338 68 151 13.0 0.0 0.00 0.00 0.00 66 1007.5
20210916072839 68 155 15.0 0.0 0.00 0.00 0.00 66 1007.5
20210916072342 68 159 12.0 0.0 0.00 0.00 0.00 67 1007.8
20210916071837 68 175 15.0 0.0 0.00 0.00 0.00 66 1007.8
20210916071336 68 116 10.0 0.0 0.00 0.00 0.00 67 1007.8
20210916070838 68 169 14.0 0.0 0.00 0.00 0.00 68 1007.8
20210916070337 68 153 12.0 0.0 0.00 0.00 0.00 68 1007.8
20210916065838 67 143 14.0 0.0 0.00 0.00 0.00 67 1007.8
20210916065341 67 167 13.0 0.0 0.00 0.00 0.00 68 1007.8
20210916064842 68 140 12.0 0.0 0.00 0.00 0.00 67 1007.8
20210916064337 67 173 13.0 0.0 0.00 0.00 0.00 67 1007.8
20210916063845 67 188 16.0 0.0 0.00 0.00 0.00 68 1007.8
20210916063338 67 150 12.0 0.0 0.00 0.00 0.00 68 1007.8
20210916062842 67 122 15.0 0.0 0.00 0.00 0.00 67 1007.8
20210916062336 67 122 13.0 0.0 0.00 0.00 0.00 67 1007.8
20210916061838 67 123 15.0 0.0 0.00 0.00 0.00 67 1007.8
20210916061342 67 166 14.0 0.0 0.00 0.00 0.00 67 1007.8
20210916060844 68 169 16.0 0.0 0.00 0.00 0.00 66 1007.8
20210916060339 68 164 14.0 0.0 0.00 0.00 0.00 66 1007.8
20210916055841 68 190 15.0 0.0 0.00 0.00 0.00 65 1007.8
20210916055338 68 142 13.0 0.0 0.00 0.00 0.00 66 1008.1
20210916054842 68 152 14.0 0.0 0.00 0.00 0.00 65 1008.1
20210916054338 68 175 13.0 0.0 0.00 0.00 0.00 66 1008.1
20210916053915 68 138 16.0 0.0 0.00 0.00 0.00 64 1008.1
20210916053340 68 156 15.0 0.0 0.00 0.00 0.00 64 1008.1
20210916052843 68 187 16.0 0.0 0.00 0.00 0.00 64 1008.1
20210916052338 68 168 13.0 0.0 0.00 0.00 0.00 63 1008.1
20210916051843 68 149 14.0 0.0 0.00 0.00 0.00 63 1008.1
20210916051513 68 161 15.0 0.0 0.00 0.00 0.00 64 1008.1
20210916045838 68 148 13.0 0.0 0.00 0.00 0.00 63 1008.1
20210916045338 68 137 15.0 0.0 0.00 0.00 0.00 64 1008.1
20210916044842 68 164 12.0 0.0 0.00 0.00 0.00 64 1008.5
20210916044340 68 133 12.0 0.0 0.00 0.00 0.00 64 1008.5
20210916043840 68 145 12.0 0.0 0.00 0.00 0.00 63 1008.5
20210916043416 68 175 13.0 0.0 0.00 0.00 0.00 63 1008.5
20210916042915 68 161 11.0 0.0 0.00 0.00 0.00 63 1008.5
20210916042336 68 154 14.0 0.0 0.00 0.00 0.00 63 1008.5
20210916041841 68 140 14.0 0.0 0.00 0.00 0.00 62 1008.5
20210916041340 68 151 12.0 0.0 0.00 0.00 0.00 62 1008.5
20210916040842 68 175 12.0 0.0 0.00 0.00 0.00 62 1008.8
20210916040339 68 155 11.0 0.0 0.00 0.00 0.00 62 1008.8
20210916035834 68 138 11.0 0.0 0.00 0.00 0.00 61 1008.8
20210916035336 68 183 11.0 0.0 0.00 0.00 0.00 61 1008.5
20210916034839 68 146 10.0 0.0 0.00 0.00 0.00 60 1008.8
20210916034340 68 119 10.0 0.0 0.00 0.00 0.00 61 1008.8
20210916034018 68 171 13.0 0.0 0.00 0.00 0.00 60 1008.8
20210916032913 69 168 12.0 0.0 0.00 0.00 0.00 58 1008.5
20210916032340 69 154 13.0 0.0 0.00 0.00 0.00 58 1008.5
20210916031839 69 182 15.0 0.0 0.00 0.00 0.00 57 1008.5
20210916031337 69 152 14.0 0.0 0.00 0.00 0.00 57 1008.5
20210916030839 69 158 15.0 0.0 0.00 0.00 0.00 56 1008.5
20210916030341 69 149 11.0 0.0 0.00 0.00 0.00 56 1008.5
20210916025836 69 118 13.0 0.0 0.00 0.00 0.00 57 1008.5
20210916025341 69 186 11.0 0.0 0.00 0.00 0.00 56 1008.5
20210916024841 69 171 11.0 0.0 0.00 0.00 0.00 56 1008.5
20210916024338 69 186 11.0 0.0 0.00 0.00 0.00 56 1008.1
20210916023840 69 151 14.0 0.0 0.00 0.00 0.00 56 1008.1
20210916023341 69 154 13.0 0.0 0.00 0.00 0.00 55 1008.1
20210916022839 69 127 13.0 0.0 0.00 0.00 0.00 55 1008.1
20210916022337 69 144 12.0 0.0 0.00 0.00 0.00 55 1008.1
20210916021843 69 174 13.0 0.0 0.00 0.00 0.00 56 1008.1
20210916021335 69 124 13.0 0.0 0.00 0.00 0.00 55 1008.1
20210916020842 69 152 15.0 0.0 0.00 0.00 0.00 56 1008.1
20210916020340 69 140 11.0 0.0 0.00 0.00 0.00 56 1007.8
20210916015838 69 149 11.0 0.0 0.00 0.00 0.00 57 1007.8
20210916015339 69 145 11.0 0.0 0.00 0.00 0.00 56 1007.8
20210916014843 69 165 13.0 0.0 0.00 0.00 0.00 56 1007.8
20210916014341 69 132 12.0 0.0 0.00 0.00 0.00 56 1007.8
20210916013843 69 162 11.0 0.0 0.00 0.00 0.00 56 1007.8
20210916013336 69 131 11.0 0.0 0.00 0.00 0.00 56 1007.8
20210916012839 69 157 10.0 0.0 0.00 0.00 0.00 56 1007.8
20210916012336 69 189 11.0 0.0 0.00 0.00 0.00 55 1007.8
20210916011840 69 145 10.0 0.0 0.00 0.00 0.00 55 1007.8
20210916011342 69 125 9.0 0.0 0.00 0.00 0.00 55 1007.8
20210916010842 69 140 9.0 0.0 0.00 0.00 0.00 54 1007.8
20210916010337 69 134 9.0 0.0 0.00 0.00 0.00 54 1007.8
20210916005857 70 160 9.0 0.0 0.00 0.00 0.00 54 1007.8
20210916005339 70 160 8.0 0.0 0.00 0.00 0.00 54 1007.8
20210916004842 70 152 8.0 0.0 0.00 0.00 0.00 53 1007.8
20210916004336 70 165 8.0 0.0 0.00 0.00 0.00 52 1007.8
20210916003913 71 155 8.0 0.0 0.00 0.00 0.00 52 1007.8
20210916003340 71 200 8.0 0.0 0.00 0.00 0.00 51 1007.8
20210916002838 71 171 8.0 0.0 0.00 0.00 0.00 52 1007.8
20210916002340 71 148 7.0 0.0 0.00 0.00 0.00 51 1007.5
20210916001842 72 155 9.0 0.0 0.00 0.00 0.00 50 1007.5
20210916001342 72 145 8.0 0.0 0.00 0.00 0.00 50 1007.5
20210916000846 72 148 8.0 0.0 0.00 0.00 0.00 50 1007.5
20210916000348 72 157 8.0 0.0 0.00 0.00 0.00 49 1007.5
20210915235912 73 139 8.0 0.0 0.00 0.00 0.00 50 1007.5
20210915234912 73 153 7.0 0.0 0.00 0.00 0.00 48 1007.5
20210915234344 74 190 9.0 0.0 0.00 0.00 0.00 47 1007.5
20210915233843 74 141 9.0 0.0 0.00 0.00 0.00 46 1007.5
20210915233341 74 166 10.0 0.0 0.00 0.00 0.00 45 1007.5
20210915232841 74 137 10.0 0.0 0.00 0.00 0.00 45 1007.5
20210915232340 75 118 10.0 0.0 0.00 0.00 0.00 45 1007.8
20210915231839 75 158 10.0 0.0 0.00 0.00 0.00 44 1007.8
20210915231341 75 191 10.0 0.0 0.00 0.00 0.00 44 1007.8
20210915230841 75 162 10.0 0.0 0.00 0.00 0.00 44 1007.8
20210915230339 75 151 11.0 0.0 0.00 0.00 0.00 42 1007.8
20210915225839 75 151 11.0 0.0 0.00 0.00 0.00 43 1007.8
20210915225341 75 168 10.0 0.0 0.00 0.00 0.00 42 1007.8
20210915224842 75 153 14.0 0.0 0.00 0.00 0.00 40 1007.8
20210915224337 75 159 10.0 0.0 0.00 0.00 0.00 41 1008.1
20210915223841 75 152 14.0 0.0 0.00 0.00 0.00 41 1008.1
20210915223335 75 142 9.0 0.0 0.00 0.00 0.00 43 1008.1
20210915222835 75 144 12.0 0.0 0.00 0.00 0.00 43 1008.1
20210915222342 75 149 11.0 0.0 0.00 0.00 0.00 41 1008.1
20210915221838 75 179 8.0 0.0 0.00 0.00 0.00 40 1008.1
20210915221339 76 198 12.0 0.0 0.00 0.00 0.00 41 1008.5
20210915220838 76 159 10.0 0.0 0.00 0.00 0.00 39 1008.1
20210915220338 76 148 11.0 0.0 0.00 0.00 0.00 41 1008.1
20210915215839 75 192 9.0 0.0 0.00 0.00 0.00 39 1008.5
20210915215335 76 141 10.0 0.0 0.00 0.00 0.00 42 1008.5
20210915214841 75 173 8.0 0.0 0.00 0.00 0.00 43 1008.8
20210915214342 75 169 15.0 0.0 0.00 0.00 0.00 42 1008.8
20210915213838 76 163 14.0 0.0 0.00 0.00 0.00 39 1008.8
20210915213338 76 165 10.0 0.0 0.00 0.00 0.00 42 1008.8
20210915212840 76 164 7.0 0.0 0.00 0.00 0.00 41 1008.8
20210915212335 76 157 9.0 0.0 0.00 0.00 0.00 40 1008.8
20210915211838 76 113 9.0 0.0 0.00 0.00 0.00 38 1008.8
20210915211341 76 119 14.0 0.0 0.00 0.00 0.00 40 1009.1
20210915210841 77 169 7.0 0.0 0.00 0.00 0.00 40 1009.1
20210915210336 76 173 7.0 0.0 0.00 0.00 0.00 39 1009.1
20210915205841 77 100 10.0 0.0 0.00 0.00 0.00 39 1009.1
20210915205341 76 182 9.0 0.0 0.00 0.00 0.00 39 1009.1
20210915204842 77 249 11.0 0.0 0.00 0.00 0.00 43 1009.5
20210915204340 76 166 12.0 0.0 0.00 0.00 0.00 41 1009.5
20210915203840 77 162 11.0 0.0 0.00 0.00 0.00 37 1009.5
20210915203337 76 149 8.0 0.0 0.00 0.00 0.00 41 1009.5
20210915202838 75 136 11.0 0.0 0.00 0.00 0.00 42 1009.8
20210915202340 75 172 10.0 0.0 0.00 0.00 0.00 41 1009.8
20210915201841 76 157 7.0 0.0 0.00 0.00 0.00 44 1009.8
20210915201342 76 192 7.0 0.0 0.00 0.00 0.00 45 1009.8
20210915200913 75 158 7.0 0.0 0.00 0.00 0.00 42 1009.8
20210915200341 75 138 8.0 0.0 0.00 0.00 0.00 43 1010.2
20210915195842 76 168 11.0 0.0 0.00 0.00 0.00 41 1010.2
20210915195340 77 142 7.0 0.0 0.00 0.00 0.00 41 1010.2
20210915194840 77 141 10.0 0.0 0.00 0.00 0.00 39 1010.2
20210915194341 78 185 6.0 0.0 0.00 0.00 0.00 38 1010.2
20210915193841 80 48 7.0 0.0 0.00 0.00 0.00 39 1010.5
20210915193342 78 168 7.0 0.0 0.00 0.00 0.00 39 1010.5
20210915192943 77 164 10.0 0.0 0.00 0.00 0.00 39 1010.5
20210915192338 77 175 9.0 0.0 0.00 0.00 0.00 41 1010.5
20210915191837 76 207 11.0 0.0 0.00 0.00 0.00 39 1010.5
20210915191335 77 168 9.0 0.0 0.00 0.00 0.00 42 1010.5
20210915190841 77 138 9.0 0.0 0.00 0.00 0.00 37 1010.8
20210915190338 77 218 6.0 0.0 0.00 0.00 0.00 37 1010.8
20210915185838 79 284 7.0 0.0 0.00 0.00 0.00 37 1010.8
20210915185340 76 156 12.0 0.0 0.00 0.00 0.00 41 1010.8
20210915184841 76 143 9.0 0.0 0.00 0.00 0.00 39 1011.2
20210915184342 76 118 11.0 0.0 0.00 0.00 0.00 38 1011.2
20210915183842 77 294 11.0 0.0 0.00 0.00 0.00 39 1011.2
20210915183339 77 146 10.0 0.0 0.00 0.00 0.00 38 1011.2
20210915182914 77 128 11.0 0.0 0.00 0.00 0.00 42 1011.2
20210915182341 75 166 15.0 0.0 0.00 0.00 0.00 40 1011.2
20210915181841 76 172 10.0 0.0 0.00 0.00 0.00 40 1011.2
20210915181337 77 258 10.0 0.0 0.00 0.00 0.00 43 1011.5
20210915180837 78 252 6.0 0.0 0.00 0.00 0.00 39 1011.5
20210915180342 78 71 11.0 0.0 0.00 0.00 0.00 39 1011.5
20210915175913 77 182 8.0 0.0 0.00 0.00 0.00 41 1011.5
20210915175351 76 1 7.0 0.0 0.00 0.00 0.00 46 1011.5
20210915174840 75 120 8.0 0.0 0.00 0.00 0.00 49 1011.5
20210915174344 75 143 7.0 0.0 0.00 0.00 0.00 51 1011.5
20210915173843 76 137 8.0 0.0 0.00 0.00 0.00 49 1011.5
20210915173342 75 151 8.0 0.0 0.00 0.00 0.00 49 1011.5
20210915172840 75 143 6.0 0.0 0.00 0.00 0.00 52 1011.5
20210915172340 74 214 7.0 0.0 0.00 0.00 0.00 52 1011.5
20210915171839 74 115 7.0 0.0 0.00 0.00 0.00 51 1011.9
20210915171342 75 253 7.0 0.0 0.00 0.00 0.00 53 1011.9
20210915170837 74 156 6.0 0.0 0.00 0.00 0.00 52 1011.9
20210915170337 74 143 8.0 0.0 0.00 0.00 0.00 53 1011.9
20210915165837 72 140 8.0 0.0 0.00 0.00 0.00 55 1011.9
20210915165341 73 206 8.0 0.0 0.00 0.00 0.00 56 1011.9
20210915164840 72 152 7.0 0.0 0.00 0.00 0.00 57 1011.9
20210915164341 73 108 6.0 0.0 0.00 0.00 0.00 54 1011.9
20210915163842 72 120 6.0 0.0 0.00 0.00 0.00 55 1011.9
20210915163413 71 130 8.0 0.0 0.00 0.00 0.00 57 1011.9
20210915162915 71 153 9.0 0.0 0.00 0.00 0.00 56 1011.9
20210915162337 71 140 8.0 0.0 0.00 0.00 0.00 58 1011.9
20210915162018 71 138 8.0 0.0 0.00 0.00 0.00 58 1012.2
20210915161424 70 153 7.0 0.0 0.00 0.00 0.00 61 1012.2
20210915160842 70 128 6.0 0.0 0.00 0.00 0.00 62 1012.2
20210915160339 69 146 8.0 0.0 0.00 0.00 0.00 60 1012.2
20210915155913 68 174 6.0 0.0 0.00 0.00 0.00 62 1012.2
20210915155343 68 141 7.0 0.0 0.00 0.00 0.00 61 1012.2
20210915154943 68 149 4.0 0.0 0.00 0.00 0.00 63 1012.2
20210915154337 69 140 5.0 0.0 0.00 0.00 0.00 62 1012.2
20210915153917 68 134 5.0 0.0 0.00 0.00 0.00 62 1012.2
20210915153342 68 180 6.0 0.0 0.00 0.00 0.00 62 1012.2
20210915152841 68 130 4.0 0.0 0.00 0.00 0.00 65 1012.2
20210915152341 68 210 4.0 0.0 0.00 0.00 0.00 67 1012.2
20210915151912 66 171 5.0 0.0 0.00 0.00 0.00 68 1012.2
20210915151339 66 136 4.0 0.0 0.00 0.00 0.00 65 1012.2
20210915150842 66 168 4.0 0.0 0.00 0.00 0.00 66 1012.2
20210915150339 65 158 5.0 0.0 0.00 0.00 0.00 70 1012.2
20210915145835 65 255 4.0 0.0 0.00 0.00 0.00 70 1012.2
20210915145336 65 142 6.0 0.0 0.00 0.00 0.00 71 1012.2
20210915144916 64 341 4.0 0.0 0.00 0.00 0.00 71 1012.2
20210915144340 63 288 5.0 0.0 0.00 0.00 0.00 74 1011.9
20210915143841 63 142 3.0 0.0 0.00 0.00 0.00 72 1011.9
20210915143341 61 158 5.0 0.0 0.00 0.00 0.00 75 1012.2
20210915142839 60 162 6.0 0.0 0.00 0.00 0.00 76 1011.9
20210915142337 61 148 4.0 0.0 0.00 0.00 0.00 74 1011.9
20210915141916 62 146 3.0 0.0 0.00 0.00 0.00 76 1011.9
20210915141341 60 14 5.0 0.0 0.00 0.00 0.00 77 1011.9
20210915140843 59 236 5.0 0.0 0.00 0.00 0.00 78 1011.9
20210915140347 59 191 5.0 0.0 0.00 0.00 0.00 79 1011.9
20210915135844 59 132 6.0 0.0 0.00 0.00 0.00 79 1011.9
20210915135344 59 189 5.0 0.0 0.00 0.00 0.00 82 1011.9
20210915134848 58 139 5.0 0.0 0.00 0.00 0.00 80 1011.9
20210915134348 58 134 5.0 0.0 0.00 0.00 0.00 81 1011.9
20210915133845 57 150 6.0 0.0 0.00 0.00 0.00 81 1011.9
20210915133346 57 154 5.0 0.0 0.00 0.00 0.00 83 1011.9
20210915132844 56 167 4.0 0.0 0.00 0.00 0.00 83 1011.9
20210915132345 56 152 3.0 0.0 0.00 0.00 0.00 83 1011.9
20210915131849 56 332 3.0 0.0 0.00 0.00 0.00 85 1011.9
20210915131344 55 135 4.0 0.0 0.00 0.00 0.00 84 1011.5
20210915130845 55 151 4.0 0.0 0.00 0.00 0.00 85 1011.5
20210915130346 54 170 4.0 0.0 0.00 0.00 0.00 88 1011.9
20210915125848 54 226 3.0 0.0 0.00 0.00 0.00 90 1011.5
20210915125348 53 146 4.0 0.0 0.00 0.00 0.00 90 1011.9
20210915124852 52 154 3.0 0.0 0.00 0.00 0.00 90 1011.5
20210915124342 52 149 4.0 0.0 0.00 0.00 0.00 91 1011.5
20210915123847 52 128 4.0 0.0 0.00 0.00 0.00 90 1011.9
20210915123343 52 156 4.0 0.0 0.00 0.00 0.00 90 1011.5
20210915122849 51 141 2.0 0.0 0.00 0.00 0.00 91 1011.5
20210915122347 50 110 3.0 0.0 0.00 0.00 0.00 93 1011.5
20210915121846 50 143 4.0 0.0 0.00 0.00 0.00 94 1011.5
20210915121339 49 163 3.0 0.0 0.00 0.00 0.00 94 1011.5
20210915120848 50 139 2.0 0.0 0.00 0.00 0.00 94 1011.2
20210915120346 50 150 2.0 0.0 0.00 0.00 0.00 94 1011.5
20210915115847 50 138 2.0 0.0 0.00 0.00 0.00 94 1011.5
20210915115347 50 124 1.0 0.0 0.00 0.00 0.00 94 1011.5
20210915114842 50 182 0.0 0.0 0.00 0.00 0.00 93 1011.2
20210915114345 51 182 2.0 0.0 0.00 0.00 0.00 93 1011.2
20210915113851 51 146 0.0 0.0 0.00 0.00 0.00 93 1011.2
20210915113348 51 76 1.0 0.0 0.00 0.00 0.00 93 1011.2
20210915112840 51 132 2.0 0.0 0.00 0.00 0.00 92 1011.2
20210915112338 52 187 2.0 0.0 0.00 0.00 0.00 92 1011.2
20210915111845 52 213 0.0 0.0 0.00 0.00 0.00 92 1011.2
20210915111349 51 253 1.0 0.0 0.00 0.00 0.00 91 1011.2
20210915110847 51 230 2.0 0.0 0.00 0.00 0.00 90 1011.2
20210915110346 51 222 2.0 0.0 0.00 0.00 0.00 90 1011.2